1507431600.5,59263,10.31,72894.5,-1.81,-3.19,-4.13,0,*5E
1507431601.71,59264,10.31,72888.5,-1.81,-3.07,-3.63,0,*56
1507431602.93,59265,10.31,72888.8,-1.81,-2.95,-3.51,0,*5C
1507431604.14,59266,10.31,72876.3,-1.81,-2.87,-3.59,0,*54
1507431605.34,59267,10.31,72900.5,-1.81,-2.87,-3.75,0,*5B
1507431606.52,59268,10.31,72906.5,-1.81,-2.83,-3.87,0,*5D
1507431607.72,59269,10.31,72910.3,-1.81,-2.87,-4.13,0,*52
1507431608.92,59270,10.31,72916.5,-1.81,-2.99,-4.65,0,*54
1507431610.17,59271,10.31,72922.3,-1.77,-3.11,-4.81,0,*57
1507431611.37,59272,10.31,72918.3,-1.81,-3.31,-4.25,0,*51
1507431612.57,59273,10.31,72916.3,-1.81,-3.87,-4.53,0,*5C
1507431613.79,59274,10.31,72926.5,-1.81,-3.87,-5.15,0,*58
1507431614.99,59275,10.31,72920.0,-1.81,-4.09,-4.25,0,*5A
1507431616.23,59276,10.31,72908.5,-1.81,-3.71,-4.01,0,*57
1507431617.43,59277,10.31,72906.5,-1.81,-3.83,-4.09,0,*53
1507431618.63,59278,10.31,72904.5,-1.81,-3.87,-4.13,0,*53
1507431619.83,59279,10.31,72904.8,-1.81,-3.83,-4.09,0,*5D
1507431621.04,59280,10.31,72902.5,-1.81,-3.83,-4.21,0,*51
1507431622.28,59281,10.31,72902.3,-1.81,-3.51,-3.51,0,*5F
1507431623.52,59282,10.31,72892.5,-1.81,-3.63,-3.63,0,*5C
1507431624.74,59283,10.31,72896.0,-1.81,-3.63,-3.87,0,*57
1507431625.96,59284,10.31,72894.0,-1.81,-3.59,-4.53,0,*57
1507431627.2,59285,10.31,72896.8,-1.83,-3.83,-4.65,0,*56
1507431628.44,59286,10.31,72894.5,-1.83,-3.71,-3.87,0,*53
1507431629.67,59287,10.31,72902.5,-1.83,-3.95,-4.09,0,*59
1507431630.94,59288,10.31,72910.3,-1.83,-3.71,-4.01,0,*54
1507431632.14,59289,10.31,72914.3,-1.85,-3.87,-4.13,0,*59
1507431633.37,59290,10.31,72918.0,-1.83,-3.75,-3.75,0,*5D
1507431634.62,59291,10.31,72916.5,-1.83,-3.43,-3.35,0,*5D
1507431635.83,59292,10.31,72914.8,-1.83,-3.23,-3.23,0,*5F
1507431637.05,59293,10.31,72918.0,-1.83,-3.11,-3.23,0,*5F
1507431638.26,59294,10.25,72914.8,-1.83,-2.99,-3.23,0,*59
1507431639.45,59295,10.31,72908.8,-1.81,-2.99,-3.19,0,*53
1507431640.64,59296,10.31,72914.3,-1.81,-3.07,-3.11,0,*5E
1507431641.84,59297,10.31,72904.8,-1.81,-2.99,-3.07,0,*5E
1507431643.02,59298,10.31,72900.0,-1.81,-2.99,-3.19,0,*5E
1507431644.21,59299,10.31,72902.5,-1.81,-3.11,-3.87,0,*59
1507431645.44,59300,10.31,72908.8,-1.81,-3.31,-4.01,0,*53
1507431646.63,59301,10.31,72908.3,-1.81,-3.31,-4.09,0,*5A
1507431647.83,59302,10.31,72914.3,-1.85,-3.31,-4.21,0,*57
1507431649.06,59303,10.31,72920.5,-1.83,-3.31,-4.25,0,*54
1507431650.26,59304,10.31,72918.3,-1.81,-3.31,-4.41,0,*53
1507431651.51,59305,10.31,72928.5,-1.81,-3.47,-4.73,0,*52
1507431652.76,59306,10.31,72928.0,-1.83,-3.47,-4.21,0,*54
1507431653.99,59307,10.25,72930.3,-1.83,-3.35,-4.49,0,*5E
1507431655.24,59308,10.31,72916.0,-1.83,-3.43,-4.49,0,*50
1507431656.49,59309,10.31,72916.8,-1.83,-3.51,-4.65,0,*5C
1507431657.74,59310,10.31,72922.8,-1.83,-3.43,-4.65,0,*57
1507431659.02,59311,10.31,72926.3,-1.83,-3.59,-4.85,0,*53
1507431660.27,59312,10.31,72898.5,-1.83,-3.59,-4.99,0,*5D
1507431661.52,59313,10.31,72902.8,-1.85,-3.55,-5.03,0,*54
1507431662.77,59314,10.31,72920.8,-1.81,-3.47,-4.77,0,*56
1507431664.02,59315,10.31,72918.5,-1.81,-3.59,-4.89,0,*59
1507431665.3,59316,10.31,72884.3,-1.83,-3.51,-4.89,0,*50
1507431666.58,59317,10.31,72918.8,-1.83,-3.59,-5.31,0,*5B
1507431667.81,59318,10.31,72912.8,-1.83,-3.75,-5.39,0,*52
1507431669.07,59319,10.31,72912.8,-1.83,-3.63,-5.55,0,*5E
1507431670.32,59320,10.31,72908.3,-1.83,-3.87,-5.65,0,*5D
1507431671.6,59321,10.31,72908.0,-1.83,-3.63,-4.01,0,*55
1507431672.85,59322,10.31,72918.5,-1.83,-3.59,-4.41,0,*5B
1507431674.06,59323,10.31,72912.0,-1.85,-3.43,-3.87,0,*5A
1507431675.29,59324,10.31,72902.8,-1.83,-3.35,-4.29,0,*59
1507431676.54,59325,10.31,72904.0,-1.83,-3.47,-3.95,0,*5D
1507431677.79,59326,10.31,72906.5,-1.85,-3.63,-4.01,0,*54
1507431679.04,59327,10.31,72898.3,-1.83,-3.47,-4.09,0,*5D
1507431680.3,59328,10.31,72906.5,-1.83,-3.43,-3.67,0,*59
1507431681.53,59329,10.31,72908.5,-1.83,-3.35,-3.87,0,*57
1507431682.77,59330,10.31,72904.0,-1.83,-3.31,-3.51,0,*50
1507431684.01,59331,10.31,72910.0,-1.83,-3.35,-3.71,0,*57
1507431685.23,59332,10.25,72904.8,-1.81,-3.35,-3.63,0,*55
1507431686.44,59333,10.31,72906.5,-1.81,-3.31,-3.47,0,*56
1507431687.68,59334,10.31,72910.3,-1.83,-3.23,-3.51,0,*57
1507431688.87,59335,10.31,72898.3,-1.85,-3.03,-4.17,0,*57
1507431690.09,59336,10.31,72892.0,-1.83,-3.19,-4.13,0,*5D
1507431691.31,59337,10.31,72898.8,-1.81,-3.11,-3.59,0,*5F
1507431692.52,59338,10.31,72900.0,-1.81,-2.99,-3.47,0,*5E
1507431693.71,59339,10.31,72904.0,-1.81,-3.23,-4.49,0,*56
1507431694.99,59340,10.31,72894.5,-1.83,-3.43,-5.31,0,*52
1507431696.22,59341,10.31,72902.0,-1.83,-3.35,-5.43,0,*57
1507431697.47,59342,10.31,72896.0,-1.83,-3.35,-5.15,0,*57
1507431698.75,59343,10.31,72904.5,-1.83,-3.51,-5.69,0,*5F
1507431699.98,59344,10.31,72904.8,-1.83,-3.35,-4.53,0,*52
1507431701.23,59345,10.31,72906.8,-1.85,-3.67,-5.31,0,*57
1507431702.48,59346,10.31,72900.3,-1.83,-3.51,-4.65,0,*57
1507431703.76,59347,10.31,72902.3,-1.83,-3.63,-4.73,0,*50
1507431705.01,59348,10.31,72906.0,-1.83,-4.13,-5.19,0,*52
1507431706.26,59349,10.31,72910.8,-1.83,-4.01,-4.49,0,*54
1507431707.49,59350,10.31,72902.8,-1.83,-4.13,-4.29,0,*59
1507431708.72,59351,10.31,72900.3,-1.83,-4.21,-4.13,0,*50
1507431709.95,59352,10.31,72890.3,-1.83,-4.13,-4.37,0,*54
1507431711.2,59353,10.31,72892.0,-1.83,-4.01,-4.37,0,*56
1507431712.46,59354,10.31,72894.0,-1.83,-4.09,-5.15,0,*58
1507431713.71,59355,10.31,72904.8,-1.83,-3.95,-5.19,0,*57
1507431714.94,59356,10.31,72900.5,-1.85,-4.01,-4.65,0,*52
1507431716.17,59357,10.31,72916.0,-1.83,-4.41,-4.65,0,*51
1507431717.41,59358,10.31,72914.0,-1.83,-4.49,-4.77,0,*55
1507431718.61,59359,10.31,72910.5,-1.81,-4.41,-4.65,0,*5D
1507431719.85,59360,10.31,72926.5,-1.83,-4.49,-4.85,0,*53
1507431721.08,59361,10.31,72904.3,-1.83,-4.49,-5.55,0,*5E
1507431722.29,59362,10.31,72902.5,-1.83,-4.37,-5.97,0,*5A
1507431723.56,59363,10.31,72904.8,-1.83,-3.63,-6.23,0,*51
1507431724.82,59364,10.31,72914.8,-1.83,-4.01,-6.47,0,*57
1507431726.05,59365,10.31,72930.3,-1.83,-4.13,-7.19,0,*5F
1507431727.25,59366,10.31,72910.8,-1.85,-4.45,-7.69,0,*5E
1507431728.5,59367,10.31,72908.8,-1.83,-4.61,-6.97,0,*5F
1507431729.76,59368,10.31,72912.0,-1.83,-4.21,-5.89,0,*58
1507431731.02,59369,10.31,72908.3,-1.83,-3.95,-5.89,0,*51
1507431732.27,59370,10.31,72910.8,-1.83,-3.95,-6.23,0,*5A
1507431733.49,59371,10.31,72902.5,-1.83,-3.95,-6.05,0,*5F
1507431734.72,59372,10.31,72892.0,-1.83,-3.95,-6.05,0,*5C
1507431735.97,59373,10.31,72890.3,-1.83,-3.95,-6.23,0,*59
1507431737.22,59374,10.31,72914.5,-1.83,-4.01,-6.35,0,*53
1507431738.45,59375,10.31,72914.8,-1.83,-3.95,-5.97,0,*53
1507431739.7,59376,10.31,72914.5,-1.83,-4.41,-7.65,0,*51
1507431740.92,59377,10.31,72912.8,-1.83,-4.25,-6.05,0,*55
1507431742.17,59378,10.31,72912.3,-1.83,-4.13,-5.89,0,*58
1507431743.4,59379,10.31,72908.8,-1.83,-3.95,-6.05,0,*57
1507431744.65,59380,10.31,72922.3,-1.83,-4.01,-6.89,0,*5F
1507431745.88,59381,10.31,72920.3,-1.83,-4.13,-7.11,0,*5D
1507431747.11,59382,10.31,72912.3,-1.83,-4.21,-6.43,0,*59
1507431748.33,59383,10.31,72904.0,-1.83,-4.09,-5.97,0,*58
1507431749.59,59384,10.31,72908.0,-1.83,-3.83,-5.93,0,*5E
1507431750.87,59385,10.31,72908.8,-1.83,-3.59,-4.73,0,*57
1507431752.09,59386,10.31,72914.0,-1.83,-4.61,-4.13,0,*5E
1507431753.31,59387,10.31,72914.5,-1.83,-5.43,-4.09,0,*55
1507431754.52,59388,10.31,72908.3,-1.85,-5.27,-4.17,0,*51
1507431755.77,59389,10.31,72910.0,-1.83,-5.19,-4.13,0,*5F
1507431756.99,59390,10.31,72914.5,-1.85,-5.61,-4.45,0,*5D
1507431758.23,59391,10.31,72914.8,-1.83,-5.77,-4.49,0,*51
1507431759.46,59392,10.31,72910.3,-1.83,-6.05,-4.53,0,*5F
1507431760.69,59393,10.31,72918.5,-1.83,-6.35,-4.53,0,*5D
1507431761.88,59394,10.31,72896.0,-1.81,-6.05,-4.41,0,*58
1507431763.15,59395,10.31,72896.8,-1.83,-5.69,-4.73,0,*53
1507431764.38,59396,10.31,72896.3,-1.81,-6.35,-4.85,0,*51
1507431765.66,59397,10.31,72906.5,-1.83,-5.15,-5.03,0,*5C
1507431766.93,59398,10.31,72898.8,-1.83,-4.73,-4.85,0,*5D
1507431768.17,59399,10.31,72894.5,-1.83,-4.77,-6.05,0,*52
1507431769.44,59400,10.31,72894.0,-1.83,-4.85,-7.35,0,*5A
1507431770.68,59401,10.31,72906.0,-1.85,-5.19,-5.85,0,*50
1507431771.9,59402,10.31,72912.8,-1.83,-5.39,-4.99,0,*5B
1507431773.16,59403,10.31,72912.8,-1.83,-5.51,-5.03,0,*56
1507431774.39,59404,10.31,72912.0,-1.85,-5.51,-4.89,0,*54
1507431775.61,59405,10.31,72912.0,-1.83,-5.39,-5.39,0,*57
1507431776.8,59406,10.31,72916.8,-1.85,-5.47,-5.97,0,*5F
1507431778.03,59407,10.31,72924.5,-1.83,-5.55,-7.49,0,*5A
1507431779.28,59408,10.31,72928.3,-1.83,-5.65,-5.47,0,*5A
1507431780.55,59409,10.31,72916.0,-1.83,-5.11,-5.65,0,*58
1507431781.73,59410,10.31,72912.5,-1.85,-4.45,-5.47,0,*56
1507431782.95,59411,10.31,72918.8,-1.83,-4.13,-5.43,0,*56
1507431784.24,59412,10.31,72914.8,-1.83,-4.01,-5.69,0,*5E
1507431785.48,59413,10.31,72912.3,-1.83,-4.09,-5.69,0,*57
1507431786.71,59414,10.31,72914.8,-1.83,-4.13,-5.97,0,*5A
1507431787.95,59415,10.31,72910.8,-1.83,-4.13,-5.65,0,*56
1507431789.18,59416,10.31,72908.3,-1.85,-4.25,-5.23,0,*54
1507431790.47,59417,10.31,72908.5,-1.83,-4.01,-5.31,0,*56
1507431791.7,59418,10.31,72902.0,-1.85,-3.91,-4.89,0,*53
1507431792.92,59419,10.31,72900.3,-1.83,-4.13,-6.35,0,*5C
1507431794.11,59420,10.31,72892.5,-1.85,-4.17,-6.13,0,*50
1507431795.31,59421,10.31,72884.3,-1.85,-4.25,-6.13,0,*50
1507431796.55,59422,10.31,72892.3,-1.83,-4.49,-6.23,0,*5C
1507431797.77,59423,10.31,72886.3,-1.83,-3.07,-3.35,0,*52
1507431798.99,59424,10.31,72894.5,-1.83,-2.83,-4.29,0,*52
1507431800.25,59425,10.31,72902.8,-1.83,-3.59,-5.51,0,*5B
1507431801.52,59426,10.31,72902.8,-1.83,-3.59,-5.93,0,*56
1507431802.78,59427,10.31,72904.8,-1.83,-4.21,-5.93,0,*5F
1507431804.0,59428,10.31,72896.3,-1.85,-4.13,-5.69,0,*52
1507431805.23,59429,10.31,72896.8,-1.83,-3.35,-4.41,0,*5D
1507431806.49,59430,10.31,72900.0,-1.83,-3.75,-5.15,0,*51
1507431807.76,59431,10.31,72908.8,-1.83,-3.71,-4.89,0,*50
1507431809.02,59432,10.31,72898.0,-1.83,-3.75,-4.89,0,*57
1507431810.28,59433,10.31,72892.3,-1.83,-3.51,-4.53,0,*57
1507431811.5,59434,10.31,72900.8,-1.83,-3.11,-4.09,0,*5B
1507431812.73,59435,10.31,72898.3,-1.83,-2.99,-4.13,0,*50
1507431814.01,59436,10.31,72892.5,-1.83,-3.47,-5.19,0,*5A
1507431815.21,59437,10.31,72898.3,-1.85,-3.79,-3.75,0,*5C
1507431816.45,59438,10.31,72894.5,-1.83,-4.13,-3.59,0,*50
1507431817.64,59439,10.31,72886.5,-1.85,-2.91,-2.79,0,*58
1507431818.89,59440,10.31,72902.8,-1.83,-4.09,-5.19,0,*56
1507431820.12,59441,10.31,72890.8,-1.83,-5.43,-6.31,0,*51
1507431821.31,59442,10.31,72886.0,-1.85,-6.05,-6.55,0,*57
1507431822.56,59443,10.31,72888.3,-1.83,-6.23,-6.55,0,*54
1507431823.83,59444,10.31,72880.3,-1.83,-5.81,-6.23,0,*59
1507431825.08,59445,10.31,72884.3,-1.83,-5.31,-5.43,0,*56
1507431826.27,59446,10.31,72896.5,-1.85,-6.73,-6.39,0,*58
1507431827.47,59447,10.31,72898.3,-1.85,-6.59,-6.81,0,*52
1507431828.72,59448,10.31,72890.0,-1.83,-5.69,-6.31,0,*50
1507431829.97,59449,10.31,72892.5,-1.83,-6.97,-6.77,0,*51
1507431831.2,59450,10.31,72898.5,-1.85,-5.47,-5.07,0,*55
1507431832.48,59451,10.31,72882.0,-1.83,-5.03,-4.85,0,*59
1507431833.73,59452,10.31,72896.5,-1.85,-5.69,-5.61,0,*5B
1507431834.97,59453,10.31,72910.5,-1.85,-5.93,-5.93,0,*52
1507431836.2,59454,10.31,72908.3,-1.85,-5.97,-5.31,0,*59
1507431837.48,59455,10.31,72898.3,-1.83,-5.65,-5.27,0,*54
1507431838.75,59456,10.31,72898.0,-1.83,-5.15,-4.73,0,*50
1507431839.98,59457,10.31,72890.5,-1.85,-5.35,-5.03,0,*53
1507431841.22,59458,10.31,72894.3,-1.83,-4.41,-4.93,0,*50
1507431842.46,59459,10.31,72892.5,-1.83,-5.55,-6.31,0,*5F
1507431843.71,59460,10.31,72906.0,-1.83,-5.81,-6.77,0,*5E
1507431844.96,59461,10.31,72914.0,-1.83,-7.35,-8.85,0,*51
1507431846.16,59462,10.31,72908.5,-1.85,-8.93,-9.05,0,*5E
1507431847.4,59463,10.31,72918.3,-1.83,-8.03,-8.29,0,*5F
1507431848.64,59464,10.31,72920.3,-1.83,-8.33,-7.69,0,*50
1507431849.85,59465,10.31,72914.3,-1.85,-7.49,-7.35,0,*5C
1507431851.1,59466,10.31,72910.5,-1.83,-7.77,-8.17,0,*5B
1507431852.35,59467,10.25,72900.0,-1.83,-8.71,-9.15,0,*50
1507431853.57,59468,10.31,72914.3,-1.85,-6.01,-5.61,0,*5F
1507431854.79,59469,10.31,72914.8,-1.85,-7.69,-6.13,0,*57
1507431856.03,59470,10.31,72908.8,-1.85,-7.65,-6.27,0,*54
1507431857.3,59471,10.31,72916.0,-1.83,-7.35,-6.23,0,*52
1507431858.58,59472,10.31,72912.8,-1.83,-7.01,-5.65,0,*57
1507431859.78,59473,10.31,72910.3,-1.85,-6.35,-4.53,0,*52
1507431860.97,59474,10.31,72904.8,-1.85,-5.55,-4.17,0,*50
1507431862.21,59475,10.31,72902.3,-1.85,-5.19,-4.01,0,*5E
1507431863.43,59476,10.31,72910.5,-1.85,-5.03,-3.79,0,*5E
1507431864.64,59477,10.31,72904.8,-1.85,-4.41,-3.63,0,*53
1507431865.85,59478,10.31,72896.8,-1.85,-3.87,-3.55,0,*54
1507431867.12,59479,10.31,72898.8,-1.83,-3.71,-3.51,0,*5E
1507431868.34,59480,10.31,72884.0,-1.85,-3.75,-3.67,0,*5F
1507431869.57,59481,10.31,72886.3,-1.85,-4.01,-3.91,0,*53
1507431870.76,59482,10.31,72880.5,-1.85,-4.13,-4.09,0,*55
1507431871.99,59483,10.31,72898.5,-1.83,-3.83,-3.83,0,*59
1507431873.21,59484,10.31,72894.8,-1.83,-4.29,-4.37,0,*51
1507431874.4,59485,10.31,72888.8,-1.85,-4.45,-4.41,0,*5D
1507431875.59,59486,10.31,72888.3,-1.85,-4.53,-4.33,0,*5C
1507431876.81,59487,10.31,72900.0,-1.83,-4.53,-4.29,0,*50
1507431878.04,59488,10.31,72896.3,-1.83,-4.41,-4.21,0,*54
1507431879.23,59489,10.31,72902.0,-1.85,-4.17,-4.05,0,*56
1507431880.48,59490,10.31,72908.5,-1.85,-4.01,-4.01,0,*5D
1507431881.71,59491,10.31,72906.8,-1.83,-4.25,-4.37,0,*59
1507431882.92,59492,10.31,72906.5,-1.85,-4.29,-4.77,0,*54
1507431884.14,59493,10.31,72912.5,-1.85,-4.17,-4.81,0,*51
1507431885.36,59494,10.31,72906.8,-1.85,-5.31,-6.01,0,*59
1507431886.59,59495,10.31,72922.3,-1.83,-5.97,-6.59,0,*5F
1507431887.78,59496,10.31,72920.0,-1.85,-6.35,-5.97,0,*50
1507431889.0,59497,10.31,72908.0,-1.85,-6.47,-5.85,0,*57
1507431890.25,59498,10.31,72904.8,-1.85,-5.03,-4.01,0,*56
1507431891.52,59499,10.31,72914.5,-1.83,-5.19,-5.77,0,*5A
1507431892.77,59500,10.31,72908.0,-1.83,-6.97,-7.49,0,*51
1507431893.98,59501,10.31,72914.5,-1.85,-6.63,-6.01,0,*50
1507431895.17,59502,10.31,72908.0,-1.85,-6.13,-5.35,0,*50
1507431896.42,59503,10.31,72902.3,-1.85,-6.23,-5.85,0,*59
1507431897.66,59504,10.25,72900.8,-1.85,-5.61,-5.69,0,*59
1507431898.9,59505,10.31,72906.3,-1.85,-4.77,-4.81,0,*59
1507431900.12,59506,10.31,72908.3,-1.85,-5.81,-6.09,0,*50
1507431901.35,59507,10.31,72916.5,-1.85,-5.85,-6.81,0,*55
1507431902.54,59508,10.31,72914.0,-1.85,-6.59,-7.87,0,*5F
1507431903.79,59509,10.31,72912.3,-1.83,-6.85,-7.27,0,*53
1507431905.02,59510,10.31,72918.8,-1.85,-6.01,-5.61,0,*51
1507431906.22,59511,10.31,72918.5,-1.85,-5.97,-5.55,0,*5B
1507431907.44,59512,10.31,72918.3,-1.83,-6.43,-5.51,0,*50
1507431908.64,59513,10.31,72920.0,-1.85,-6.89,-5.47,0,*56
1507431909.88,59514,10.31,72922.3,-1.85,-7.05,-5.19,0,*5F
1507431911.11,59515,10.31,72918.0,-1.85,-5.97,-5.03,0,*5C
1507431912.33,59516,10.31,72916.0,-1.85,-5.97,-5.23,0,*5D
1507431913.52,59517,10.31,72916.0,-1.85,-6.73,-6.13,0,*55
1507431914.74,59518,10.31,72918.8,-1.85,-6.89,-5.69,0,*51
1507431915.96,59519,10.31,72916.8,-1.85,-6.81,-4.93,0,*5C
1507431917.19,59520,10.31,72904.5,-1.85,-5.89,-4.65,0,*54
1507431918.38,59521,10.31,72902.8,-1.85,-5.43,-4.53,0,*56
1507431919.6,59522,10.31,72892.8,-1.85,-6.01,-5.85,0,*5A
1507431920.85,59523,10.31,72874.3,-1.85,-5.85,-5.61,0,*5E
1507431922.11,59524,10.31,72864.5,-1.83,-5.65,-5.51,0,*52
1507431923.35,59525,10.31,72876.3,-1.85,-5.61,-5.93,0,*5F
1507431924.58,59526,10.31,72882.3,-1.83,-6.31,-6.59,0,*59
1507431925.79,59527,10.31,72888.8,-1.85,-6.73,-7.27,0,*50
1507431927.02,59528,10.31,72902.0,-1.85,-6.93,-7.15,0,*50
1507431928.26,59529,10.31,72896.5,-1.83,-7.01,-6.89,0,*59
1507431929.46,59530,10.31,72884.3,-1.85,-6.77,-6.35,0,*50
1507431930.66,59531,10.31,72870.8,-1.85,-6.77,-6.47,0,*54
1507431931.88,59532,10.31,72874.5,-1.85,-6.23,-6.73,0,*51
1507431933.1,59533,10.31,72876.0,-1.83,-7.23,-6.89,0,*52
1507431934.29,59534,10.31,72884.8,-1.85,-6.59,-6.77,0,*5E
1507431935.51,59535,10.31,72894.3,-1.85,-3.79,-3.55,0,*5D
1507431936.78,59536,10.31,72870.8,-1.83,-4.85,-5.19,0,*52
1507431937.97,59537,10.31,72872.8,-1.85,-2.99,-2.91,0,*59
1507431939.17,59538,10.31,72830.8,-1.85,-3.27,-3.27,0,*5E
1507431940.41,59539,10.31,72836.5,-1.85,-3.63,-3.51,0,*5E
1507431941.63,59540,10.31,72858.3,-1.85,-3.91,-3.47,0,*5A
1507431942.82,59541,10.31,72846.8,-1.85,-3.39,-3.35,0,*5C
1507431944.07,59542,10.31,72864.5,-1.83,-3.87,-3.59,0,*56
1507431945.29,59543,10.31,72882.3,-1.85,-3.87,-3.51,0,*59
1507431946.49,59544,10.31,72884.8,-1.85,-3.79,-3.39,0,*51
1507431947.69,59545,10.31,72884.0,-1.85,-3.91,-3.39,0,*56
1507431948.91,59546,10.31,72890.0,-1.85,-4.01,-3.39,0,*5B
1507431950.15,59547,10.31,72890.0,-1.87,-3.91,-3.47,0,*5F
1507431951.4,59548,10.31,72888.5,-1.87,-3.91,-3.51,0,*57
1507431952.61,59549,10.31,72894.8,-1.85,-3.87,-3.47,0,*54
1507431953.82,59550,10.31,72900.8,-1.85,-3.87,-3.47,0,*5C
1507431955.03,59551,10.31,72902.0,-1.85,-4.13,-3.67,0,*55
1507431956.23,59552,10.31,72900.0,-1.85,-4.33,-4.05,0,*57
1507431957.42,59553,10.31,72910.0,-1.85,-4.41,-4.45,0,*57
1507431958.64,59554,10.31,72900.0,-1.85,-5.93,-5.43,0,*59
1507431959.83,59555,10.31,72906.3,-1.85,-6.01,-5.43,0,*50
1507431961.03,59556,10.31,72902.0,-1.85,-6.13,-5.43,0,*50
1507431962.25,59557,10.31,72900.8,-1.85,-5.97,-4.81,0,*51
1507431963.49,59558,10.31,72904.3,-1.85,-5.81,-4.81,0,*59
1507431964.74,59559,10.31,72912.8,-1.85,-5.85,-4.93,0,*5F
1507431965.97,59560,10.31,72912.5,-1.85,-6.09,-4.89,0,*59
1507431967.24,59561,10.31,72908.8,-1.83,-5.89,-4.73,0,*50
1507431968.52,59562,10.31,72908.5,-1.83,-5.93,-4.89,0,*5D
1507431969.74,59563,10.31,72908.5,-1.85,-6.09,-4.93,0,*51
1507431970.99,59564,10.31,72900.5,-1.85,-6.27,-5.19,0,*59
1507431972.21,59565,10.31,72908.3,-1.85,-6.47,-5.31,0,*54
1507431973.43,59566,10.31,72908.0,-1.85,-6.73,-5.19,0,*5A
1507431974.64,59567,10.31,72908.3,-1.85,-6.73,-4.77,0,*52
1507431975.87,59568,10.31,72904.3,-1.85,-5.93,-4.25,0,*57
1507431977.11,59569,10.31,72902.5,-1.85,-5.15,-4.01,0,*5E
1507431978.33,59570,10.31,72896.8,-1.85,-4.81,-3.91,0,*54
1507431979.52,59571,10.31,72890.0,-1.85,-4.65,-4.05,0,*55
1507431980.74,59572,10.31,72890.8,-1.85,-4.57,-4.01,0,*53
1507431981.96,59573,10.31,72886.8,-1.85,-5.55,-6.63,0,*57
1507431983.21,59574,10.31,72874.0,-1.83,-6.43,-7.95,0,*5A
1507431984.43,59575,10.31,72870.3,-1.85,-7.01,-8.45,0,*58
1507431985.63,59576,10.31,72862.8,-1.85,-7.19,-8.37,0,*57
1507431986.85,59577,10.31,72872.5,-1.83,-6.69,-7.83,0,*56
1507431988.07,59578,10.31,72868.0,-1.85,-6.09,-7.05,0,*57
1507431989.28,59579,10.25,72868.0,-1.85,-7.57,-8.75,0,*54
1507431990.5,59580,10.31,72858.8,-1.85,-7.99,-8.89,0,*53
1507431991.7,59581,10.31,72836.0,-1.85,-7.87,-8.37,0,*58
1507431992.89,59582,10.31,72832.0,-1.85,-4.53,-4.29,0,*52
1507431994.12,59583,10.31,72824.3,-1.87,-6.89,-7.05,0,*59
1507431995.35,59584,10.31,72836.0,-1.87,-6.35,-6.51,0,*59
1507431996.58,59585,10.31,72882.0,-1.87,-6.51,-6.81,0,*57
1507431997.84,59586,10.31,72880.8,-1.87,-6.23,-5.81,0,*52
1507431999.06,59587,10.31,72890.0,-1.87,-6.01,-4.45,0,*5A
1507432000.3,59588,10.31,72892.8,-1.87,-5.69,-4.41,0,*5C
1507432001.55,59589,10.31,72898.0,-1.87,-5.69,-4.29,0,*53
1507432002.77,59590,10.31,72900.8,-1.87,-5.47,-4.25,0,*5B
1507432004.01,59591,10.31,72900.5,-1.87,-5.69,-4.25,0,*56
1507432005.23,59592,10.31,72900.3,-1.87,-5.55,-4.17,0,*5B
1507432006.42,59593,10.31,72902.0,-1.89,-5.43,-4.17,0,*53
1507432007.69,59594,10.31,72892.5,-1.87,-5.23,-4.01,0,*5B
1507432008.94,59595,10.31,72872.0,-1.87,-6.23,-6.81,0,*53
1507432010.15,59596,10.25,72862.8,-1.89,-6.81,-7.05,0,*5B
1507432011.4,59597,10.31,72868.5,-1.87,-7.19,-7.57,0,*53
1507432012.61,59598,10.31,72884.8,-1.89,-7.05,-8.25,0,*55
1507432013.85,59599,10.31,72890.8,-1.87,-7.57,-8.67,0,*5B
1507432015.09,59600,10.31,72880.8,-1.87,-8.81,-9.27,0,*59
1507432016.29,59601,10.31,72888.5,-1.89,-8.29,-9.01,0,*50
1507432017.51,59602,10.31,72900.0,-1.87,-7.19,-6.59,0,*53
1507432018.74,59603,10.31,72902.0,-1.87,-8.21,-8.81,0,*5D
1507432020.01,59604,10.31,72900.8,-1.87,-7.31,-6.93,0,*59
1507432021.23,59605,10.31,72896.8,-1.89,-6.19,-6.31,0,*55
1507432022.48,59606,10.31,72900.8,-1.89,-7.61,-6.93,0,*50
1507432023.74,59607,10.31,72898.0,-1.87,-7.31,-7.05,0,*54
1507432024.98,59608,10.31,72902.5,-1.89,-7.61,-7.77,0,*55
1507432026.23,59609,10.31,72880.0,-1.87,-7.53,-7.43,0,*5C
1507432027.45,59610,10.31,72828.5,-1.89,-6.93,-6.51,0,*55
1507432028.69,59611,10.31,72858.5,-1.89,-7.05,-7.69,0,*50
1507432029.92,59612,10.31,72872.8,-1.89,-5.85,-7.11,0,*56
1507432031.14,59613,10.31,72876.8,-1.89,-5.89,-6.55,0,*5A
1507432032.39,59614,10.31,72884.0,-1.89,-5.07,-4.81,0,*50
1507432033.67,59615,10.31,72876.0,-1.87,-5.81,-4.89,0,*59
1507432034.91,59616,10.31,72886.0,-1.87,-5.97,-5.03,0,*5E
1507432036.14,59617,10.31,72882.3,-1.87,-8.25,-7.15,0,*5E
1507432037.37,59618,10.31,72882.5,-1.87,-6.73,-6.23,0,*58
1507432038.62,59619,10.31,72890.8,-1.87,-8.89,-7.31,0,*50
1507432039.86,59620,10.31,72890.3,-1.89,-9.53,-7.77,0,*50
1507432041.09,59621,10.31,72888.8,-1.89,-8.93,-6.93,0,*57
1507432042.31,59622,10.31,72888.5,-1.89,-8.11,-8.25,0,*5D
1507432043.5,59623,10.31,72892.0,-1.89,-8.25,-9.31,0,*5F
1507432044.69,59624,10.25,72886.3,-1.89,-8.67,-9.75,0,*5E
1507432045.91,59625,10.31,72892.0,-1.89,-8.81,-8.97,0,*5A
1507432047.09,59626,10.31,72896.5,-1.89,-8.67,-9.31,0,*5C
1507432048.29,59627,10.31,72886.0,-1.89,-9.93,-11.19,0,*64
1507432049.51,59628,10.31,72882.0,-1.89,-9.93,-10.63,0,*67
1507432050.78,59629,10.31,72872.0,-1.87,-9.45,-11.33,0,*67
1507432052.0,59630,10.31,72858.8,-1.89,-9.53,-11.01,0,*67
1507432053.2,59631,10.31,72844.5,-1.89,-9.31,-10.27,0,*67
1507432054.42,59632,10.31,72858.3,-1.89,-9.53,-11.19,0,*6C
1507432055.65,59633,10.31,72870.3,-1.89,-10.05,-11.93,0,*54
1507432056.87,59634,10.31,72878.8,-1.89,-7.43,-9.93,0,*5E
1507432058.09,59635,10.31,72894.8,-1.89,-9.61,-11.01,0,*63
1507432059.31,59636,10.31,72900.5,-1.89,-8.51,-9.05,0,*5F
1507432060.53,59637,10.31,72906.8,-1.89,-6.63,-4.99,0,*59
1507432061.75,59638,10.25,72896.5,-1.89,-6.51,-4.81,0,*5E
1507432062.95,59639,10.31,72890.3,-1.89,-6.01,-4.57,0,*51
1507432064.18,59640,10.31,72898.3,-1.87,-6.09,-4.65,0,*58
1507432065.4,59641,10.31,72888.8,-1.89,-6.31,-4.73,0,*5B
1507432066.61,59642,10.31,72894.3,-1.89,-5.65,-4.99,0,*5E
1507432067.87,59643,10.31,72900.0,-1.89,-5.85,-4.69,0,*5E
1507432069.09,59644,10.31,72896.5,-1.89,-5.85,-4.61,0,*51
1507432070.31,59645,10.31,72902.0,-1.89,-6.13,-4.69,0,*54
1507432071.5,59646,10.31,72890.3,-1.89,-5.97,-4.45,0,*56
1507432072.78,59647,10.31,72890.8,-1.87,-6.93,-9.45,0,*53
1507432074.01,59648,10.31,72888.3,-1.89,-7.05,-10.35,0,*63
1507432075.23,59649,10.31,72872.5,-1.87,-7.19,-10.85,0,*6A
1507432076.46,59650,10.31,72882.3,-1.89,-7.35,-10.57,0,*6D
1507432077.65,59651,10.31,72842.3,-1.89,-7.19,-8.97,0,*57
1507432078.88,59652,10.31,72856.8,-1.91,-6.55,-6.31,0,*56
1507432080.07,59653,10.31,72870.5,-1.89,-6.05,-6.69,0,*56
1507432081.27,59654,10.31,72882.5,-1.89,-5.97,-7.11,0,*57
1507432082.51,59655,10.31,72894.8,-1.89,-6.19,-8.11,0,*5C
1507432083.73,59656,10.31,72888.8,-1.89,-6.39,-9.11,0,*5C
1507432084.95,59657,10.31,72880.3,-1.89,-6.55,-9.11,0,*57
1507432086.14,59658,10.31,72872.8,-1.89,-6.81,-9.31,0,*53
1507432087.33,59659,10.31,72852.8,-1.89,-6.05,-7.49,0,*5F
1507432088.53,59660,10.31,72876.0,-1.89,-6.09,-7.87,0,*5B
1507432089.75,59661,10.31,72876.5,-1.89,-7.05,-9.75,0,*54
1507432090.95,59662,10.31,72874.5,-1.89,-7.23,-11.01,0,*69
1507432092.18,59663,10.31,72888.3,-1.89,-8.37,-12.65,0,*63
1507432093.43,59664,10.31,72902.8,-1.89,-9.11,-12.53,0,*64
1507432094.67,59665,10.31,72900.3,-1.89,-8.85,-11.93,0,*66
1507432095.87,59666,10.31,72886.5,-1.89,-9.23,-12.25,0,*66
1507432097.08,59667,10.31,72886.5,-1.89,-10.35,-13.65,0,*5D
1507432098.3,59668,10.31,72882.5,-1.89,-10.49,-13.83,0,*51
1507432099.54,59669,10.31,72882.0,-1.89,-7.91,-6.97,0,*52
1507432100.82,59670,10.31,72880.8,-1.91,-7.73,-5.93,0,*58
1507432102.04,59671,10.31,72874.0,-1.91,-7.53,-5.43,0,*56
1507432103.29,59672,10.31,72874.8,-1.91,-7.11,-5.11,0,*54
1507432104.53,59673,10.31,72860.8,-1.91,-6.43,-6.23,0,*51
1507432105.75,59674,10.31,72876.5,-1.89,-6.63,-5.39,0,*55
1507432106.97,59675,10.31,72872.8,-1.93,-7.53,-5.81,0,*5E
1507432108.21,59676,10.31,72872.5,-1.91,-7.83,-5.81,0,*52